FW1511 Weather Reports


Display with metric or nautical units.
time (UTC)temp
F
wind
direction
speed
MPH
gust
MPH
rain 1hr
in
rain 24hr
in
rain mn
in
humidity
%
barometer
mb
20260902204556 59 89 3.0 14.0 0.02 0.07 0.06 89 1003.2
20260902203055 59 95 1.0 9.0 0.03 0.07 0.06 89 1003.3
20260902201604 59 95 1.0 9.0 0.04 0.07 0.06 88 1003.6
20260902200123 60 126 1.0 16.0 0.04 0.06 0.05 87 1003.6
20260902194550 60 105 4.0 19.0 0.03 0.05 0.04 87 1003.9
20260902193047 60 123 3.0 15.0 0.03 0.04 0.03 86 1003.9
20260902191550 61 81 3.0 11.0 0.02 0.03 0.02 85 1004.0
20260902190058 62 101 1.0 10.0 0.01 0.02 0.01 82 1004.2
20260902184544 63 97 0.0 13.0 0.01 0.02 0.01 80 1004.3
20260902183047 64 147 4.0 18.0 0.00 0.01 0.00 75 1004.5
20260902181541 64 117 3.0 9.0 0.00 0.01 0.00 75 1004.7
20260902180040 64 150 3.0 9.0 0.00 0.01 0.00 76 1004.6
20260902174539 63 103 4.0 11.0 0.00 0.01 0.00 76 1004.8
20260902173038 64 106 4.0 16.0 0.00 0.01 0.00 75 1004.9
20260902171538 65 115 5.0 10.0 0.00 0.01 0.00 73 1004.9
20260902170036 64 121 3.0 9.0 0.00 0.01 0.00 75 1004.9
20260902164535 64 137 2.0 8.0 0.00 0.01 0.00 75 1004.9
20260902163030 63 146 1.0 7.0 0.00 0.01 0.00 78 1005.1
20260902161533 61 112 1.0 4.0 0.00 0.01 0.00 81 1005.0
20260902160030 60 109 0.0 4.0 0.00 0.01 0.00 83 1005.3
20260902154526 60 132 0.0 6.0 0.00 0.01 0.00 84 1005.2
20260902153018 59 143 0.0 10.0 0.00 0.01 0.00 86 1005.5
20260902151514 59 77 0.0 6.0 0.00 0.01 0.00 87 1005.6
20260902150014 58 94 0.0 8.0 0.00 0.01 0.00 88 1005.9
20260902144510 58 16 0.0 1.0 0.00 0.01 0.00 89 1006.0
20260902143008 58 125 0.0 5.0 0.00 0.01 0.00 89 1006.3
20260902141508 58 143 0.0 8.0 0.00 0.01 0.00 90 1006.4
20260902140008 58 103 1.0 8.0 0.00 0.01 0.00 90 1006.3
20260902134506 58 112 0.0 9.0 0.00 0.01 0.00 90 1006.5
20260902133003 58 122 1.0 6.0 0.00 0.01 0.00 90 1006.8
20260902131502 58 103 1.0 4.0 0.00 0.01 0.00 91 1006.9
20260902130001 58 103 0.0 5.0 0.00 0.01 0.00 91 1007.0
20260902124603 58 127 0.0 7.0 0.00 0.01 0.00 92 1007.0
20260902123059 57 98 1.0 7.0 0.00 0.01 0.00 92 1007.1
20260902121603 58 119 1.0 4.0 0.00 0.01 0.00 92 1007.3
20260902120056 58 88 1.0 5.0 0.00 0.01 0.00 92 1007.4
20260902114555 58 113 0.0 6.0 0.00 0.01 0.00 92 1007.6
20260902113108 57 94 0.0 5.0 0.00 0.01 0.00 93 1007.7
20260902111559 57 120 0.0 4.0 0.00 0.01 0.00 94 1007.6
20260902110051 57 145 0.0 1.0 0.00 0.01 0.00 94 1007.9
20260902104551 57 138 0.0 3.0 0.00 0.01 0.00 94 1007.9
20260902103049 57 141 0.0 3.0 0.00 0.01 0.00 94 1008.0
20260902101554 56 112 0.0 3.0 0.00 0.01 0.00 94 1008.0
20260902100047 56 141 0.0 2.0 0.00 0.01 0.00 94 1008.1
20260902094551 57 134 0.0 0.0 0.00 0.01 0.00 93 1008.0
20260902093044 58 113 0.0 7.0 0.00 0.01 0.00 93 1008.3
20260902091549 58 103 0.0 5.0 0.00 0.01 0.00 93 1008.5
20260902090042 58 124 0.0 0.0 0.00 0.01 0.00 93 1008.6
20260902084541 58 114 0.0 4.0 0.00 0.01 0.00 93 1008.7
20260902083039 58 148 0.0 6.0 0.00 0.01 0.00 94 1008.9
20260902081543 58 114 0.0 3.0 0.00 0.01 0.00 94 1008.9
20260902080036 58 129 0.0 1.0 0.00 0.01 0.00 94 1009.1
20260902074535 58 131 0.0 4.0 0.00 0.01 0.00 94 1009.3
20260902073034 58 124 0.0 6.0 0.00 0.01 0.00 96 1009.4
20260902071532 57 130 0.0 5.0 0.00 0.01 0.00 96 1009.5
20260902070027 56 167 0.0 0.0 0.00 0.01 0.00 95 1009.5
20260902064527 56 167 0.0 0.0 0.00 0.01 0.01 95 1009.4
20260902063026 56 167 0.0 0.0 0.00 0.01 0.01 93 1009.4
20260902061527 56 167 0.0 0.0 0.00 0.01 0.01 94 1009.4
20260902060032 57 167 0.0 0.0 0.00 0.01 0.01 93 1009.6
20260902054524 57 167 0.0 0.0 0.00 0.01 0.01 91 1009.6
20260902053034 58 167 0.0 0.0 0.00 0.01 0.01 90 1010.0
20260902051529 59 167 0.0 0.0 0.00 0.01 0.01 91 1010.0
20260902050023 59 167 0.0 0.0 0.00 0.01 0.01 91 1010.1
20260902044523 59 167 0.0 0.0 0.00 0.01 0.01 90 1010.2
20260902043027 59 167 0.0 0.0 0.00 0.01 0.01 89 1010.1
20260902041522 60 167 0.0 0.0 0.00 0.01 0.01 88 1010.1
20260902040021 60 167 0.0 0.0 0.00 0.01 0.01 88 1010.1
20260902034522 61 167 0.0 0.0 0.00 0.01 0.01 86 1010.0
20260902033033 61 183 0.0 0.0 0.00 0.01 0.01 86 1010.0
20260902031519 62 162 0.0 0.0 0.00 0.01 0.01 86 1010.1
20260902030019 62 155 0.0 0.0 0.00 0.01 0.01 85 1010.1
20260902024519 63 222 0.0 0.0 0.00 0.01 0.01 85 1009.9
20260902023020 63 158 0.0 0.0 0.00 0.01 0.01 85 1009.9
20260902021519 63 174 0.0 1.0 0.00 0.01 0.01 84 1009.8
20260902020019 64 233 0.0 2.0 0.00 0.01 0.01 83 1010.0
20260902014532 64 30 0.0 1.0 0.00 0.01 0.01 84 1010.0
20260902013016 64 221 0.0 3.0 0.00 0.01 0.01 85 1009.9
20260902011531 64 186 0.0 0.0 0.00 0.01 0.01 86 1009.8
20260902010019 64 186 0.0 0.0 0.00 0.01 0.01 86 1009.6
20260902004515 64 224 0.0 3.0 0.00 0.01 0.01 86 1009.7
20260902003014 64 250 0.0 2.0 0.01 0.01 0.01 86 1009.8
20260902001514 64 206 0.0 0.0 0.01 0.01 0.01 86 1009.7
20260902000016 64 205 0.0 0.0 0.01 0.01 0.01 85 1009.7
20260901234533 65 233 0.0 0.0 0.01 0.01 0.01 85 1009.9
20260901233012 66 283 0.0 2.0 0.00 0.00 0.00 79 1009.8
20260901231513 67 259 0.0 4.0 0.00 0.00 0.00 77 1009.9
20260901230011 67 228 0.0 2.0 0.00 0.00 0.00 74 1009.8
20260901224509 67 114 0.0 3.0 0.00 0.00 0.00 77 1009.6
20260901223008 66 110 1.0 3.0 0.00 0.00 0.00 79 1009.7
20260901221519 66 281 0.0 4.0 0.00 0.00 0.00 79 1009.8
20260901220007 64 150 0.0 5.0 0.00 0.00 0.00 81 1009.8
20260901214509 64 127 0.0 1.0 0.00 0.00 0.00 86 1010.0
20260901213006 64 100 0.0 2.0 0.00 0.00 0.00 81 1010.0
20260901211510 65 179 0.0 6.0 0.00 0.00 0.00 81 1010.1
20260901210005 64 117 1.0 6.0 0.00 0.00 0.00 83 1010.1